,,Stat6,,Stat2,,Stat8,,Stat9,,Stat10,,Wind1,,Wind1,
time,status,PA1M_AVG,status,PR1M_SUM,status,RH1M_AVG,status,SR1M_AVG,status,TA1M_AVG,status,W1dAve1m,status,W1sAve1m,
2008-04-11, 00:00:00,VALID,917.051,VALID,0,VALID,100,VALID,0.0169808,VALID,19.3185,VALID,135,VALID,0,
2008-04-11, 00:01:00,VALID,917.042,VALID,0,VALID,100,VALID,0.0509425,VALID,19.2958,VALID,106,VALID,0.047061,
2008-04-11, 00:02:00,VALID,917.052,VALID,0,VALID,100,VALID,0.0339617,VALID,19.2733,VALID,72,VALID,0,
2008-04-11, 00:03:00,VALID,917.041,VALID,0,VALID,100,VALID,0.0339617,VALID,19.2471,VALID,66,VALID,0,
2008-04-11, 00:04:00,VALID,917.037,VALID,0,VALID,100,VALID,0,VALID,19.2346,VALID,60,VALID,0.433681,
2008-04-11, 00:05:00,VALID,917.03,VALID,0,VALID,100,VALID,-0.0849042,VALID,19.2224,VALID,43,VALID,1.1092,
2008-04-11, 00:06:00,VALID,917.028,VALID,0,VALID,100,VALID,-0.0509425,VALID,19.2161,VALID,47,VALID,1.08086,
2008-04-11, 00:07:00,VALID,917.026,VALID,0,VALID,100,VALID,-0.101885,VALID,19.2134,VALID,34,VALID,0.611555,
2008-04-11, 00:08:00,VALID,917.009,VALID,0,VALID,100,VALID,-0.0849042,VALID,19.2226,VALID,37,VALID,0.652876,
2008-04-11, 00:09:00,VALID,917.011,VALID,0,VALID,100,VALID,-0.0679233,VALID,19.2388,VALID,29,VALID,0.422276,
2008-04-11, 00:10:00,VALID,916.986,VALID,0,VALID,100,VALID,-0.0509425,VALID,19.2294,VALID,29,VALID,0.43045,
2008-04-11, 00:11:00,VALID,916.982,VALID,0,VALID,100,VALID,-0.0679233,VALID,19.2226,VALID,29,VALID,0.601918,
2008-04-11, 00:12:00,VALID,916.966,VALID,0.2,VALID,100,VALID,-0.0679233,VALID,19.2002,VALID,32,VALID,0.622396,
2008-04-11, 00:13:00,VALID,916.963,VALID,0,VALID,100,VALID,-0.0509425,VALID,19.1999,VALID,45,VALID,0.723958,
2008-04-11, 00:14:00,VALID,916.954,VALID,0,VALID,100,VALID,-0.0679233,VALID,19.1934,VALID,49,VALID,0.918501,
2008-04-11, 00:15:00,VALID,916.929,VALID,0,VALID,100,VALID,-0.0849042,VALID,19.2074,VALID,60,VALID,1.02344,
2008-04-11, 00:16:00,VALID,916.927,VALID,0,VALID,100,VALID,-0.0509425,VALID,19.1867,VALID,59,VALID,1.07071,
2008-04-11, 00:17:00,VALID,916.903,VALID,0,VALID,100,VALID,-0.0849042,VALID,19.1805,VALID,58,VALID,1.08194,
2008-04-11, 00:18:00,VALID,916.903,VALID,0,VALID,100,VALID,-0.0679233,VALID,19.18,VALID,61,VALID,1.20549,
2008-04-11, 00:19:00,VALID,916.883,VALID,0,VALID,100,VALID,-0.0339617,VALID,19.177,VALID,64,VALID,1.06917,
2008-04-11, 00:20:00,VALID,916.872,VALID,0,VALID,100,VALID,-0.101885,VALID,19.1807,VALID,63,VALID,1.08422,
2008-04-11, 00:21:00,VALID,916.855,VALID,0,VALID,100,VALID,-0.0509425,VALID,19.1964,VALID,59,VALID,1.01328,
2008-04-11, 00:22:00,VALID,916.838,VALID,0,VALID,100,VALID,-0.0679233,VALID,19.2097,VALID,46,VALID,0.592297,
2008-04-11, 00:23:00,VALID,916.833,VALID,0,VALID,100,VALID,-0.0339617,VALID,19.2194,VALID,35,VALID,0.498728,
2008-04-11, 00:24:00,VALID,916.8,VALID,0,VALID,100,VALID,-0.0679233,VALID,19.2388,VALID,11,VALID,0.056686,
2008-04-11, 00:25:00,VALID,916.808,VALID,0,VALID,100,VALID,-0.0509425,VALID,19.2418,VALID,314,VALID,0.0262784,
2008-04-11, 00:26:00,VALID,916.784,VALID,0,VALID,100,VALID,-0.0509425,VALID,19.2583,VALID,299,VALID,0.28457,
2008-04-11, 00:27:00,VALID,916.782,VALID,0,VALID,100,VALID,-0.0339617,VALID,19.2548,VALID,299,VALID,0.0234375,
2008-04-11, 00:28:00,VALID,916.747,VALID,0,VALID,100,VALID,-0.0849042,VALID,19.2648,VALID,299,VALID,0.314546,
2008-04-11, 00:29:00,VALID,916.732,VALID,0,VALID,100,VALID,-0.0339617,VALID,19.2678,VALID,299,VALID,0.138951,
2008-04-11, 00:30:00,VALID,916.707,VALID,0,VALID,100,VALID,-0.0509425,VALID,19.2546,VALID,299,VALID,0,
2008-04-11, 00:31:00,VALID,916.696,VALID,0,VALID,100,VALID,-0.0339617,VALID,19.2676,VALID,300,VALID,0.0257994,
2008-04-11, 00:32:00,VALID,916.675,VALID,0,VALID,100,VALID,-0.0169808,VALID,19.3035,VALID,340,VALID,0.109375,
2008-04-11, 00:33:00,VALID,916.678,VALID,0,VALID,100,VALID,-0.0339617,VALID,19.3167,VALID,10,VALID,0.665153,
2008-04-11, 00:34:00,VALID,916.662,VALID,0,VALID,100,VALID,-0.0339617,VALID,19.3195,VALID,16,VALID,0.302024,
2008-04-11, 00:35:00,VALID,916.657,VALID,0,VALID,100,VALID,-0.0339617,VALID,19.3329,VALID,16,VALID,0.11619,
2008-04-11, 00:36:00,VALID,916.655,VALID,0,VALID,100,VALID,-0.0509425,VALID,19.3524,VALID,16,VALID,0,
2008-04-11, 00:37:00,VALID,916.65,VALID,0,VALID,100,VALID,-0.0339617,VALID,19.3649,VALID,16,VALID,0,
2008-04-11, 00:38:00,VALID,916.641,VALID,0,VALID,100,VALID,-0.0339617,VALID,19.3719,VALID,16,VALID,0,
2008-04-11, 00:39:00,VALID,916.624,VALID,0,VALID,100,VALID,-0.0509425,VALID,19.3624,VALID,320,VALID,0.122456,
2008-04-11, 00:40:00,VALID,916.605,VALID,0,VALID,100,VALID,-0.0849042,VALID,19.3459,VALID,261,VALID,0,
2008-04-11, 00:41:00,VALID,916.593,VALID,0,VALID,100,VALID,-0.0169808,VALID,19.3424,VALID,261,VALID,0,
2008-04-11, 00:42:00,VALID,916.583,VALID,0,VALID,100,VALID,-0.0679233,VALID,19.3496,VALID,261,VALID,0,
2008-04-11, 00:43:00,VALID,916.562,VALID,0,VALID,100,VALID,-0.0339617,VALID,19.3492,VALID,261,VALID,0,
2008-04-11, 00:44:00,VALID,916.525,VALID,0,VALID,100,VALID,-0.0849042,VALID,19.3654,VALID,261,VALID,0,
2008-04-11, 00:45:00,VALID,916.507,VALID,0,VALID,100,VALID,-0.0849042,VALID,19.3881,VALID,261,VALID,0,
2008-04-11, 00:46:00,VALID,916.479,VALID,0,VALID,100,VALID,-0.0849042,VALID,19.3978,VALID,261,VALID,0,
2008-04-11, 00:47:00,VALID,916.472,VALID,0,VALID,100,VALID,-0.0679233,VALID,19.411,VALID,264,VALID,0,
2008-04-11, 00:48:00,VALID,916.449,VALID,0,VALID,100,VALID,-0.0679233,VALID,19.417,VALID,290,VALID,0,
2008-04-11, 00:49:00,VALID,916.442,VALID,0,VALID,100,VALID,-0.0509425,VALID,19.424,VALID,290,VALID,0,
2008-04-11, 00:50:00,VALID,916.422,VALID,0,VALID,100,VALID,-0.0509425,VALID,19.4437,VALID,314,VALID,0,
2008-04-11, 00:51:00,VALID,916.407,VALID,0,VALID,100,VALID,-0.0509425,VALID,19.4467,VALID,7,VALID,0.251116,
2008-04-11, 00:52:00,VALID,916.383,VALID,0,VALID,100,VALID,-0.0679233,VALID,19.46,VALID,27,VALID,0.47218,
2008-04-11, 00:53:00,VALID,916.351,VALID,0,VALID,100,VALID,-0.0679233,VALID,19.4827,VALID,28,VALID,0,
2008-04-11, 00:54:00,VALID,916.323,VALID,0,VALID,100,VALID,-0.0679233,VALID,19.4894,VALID,28,VALID,0.216273,
2008-04-11, 00:55:00,VALID,916.297,VALID,0,VALID,100,VALID,-0.0679233,VALID,19.4824,VALID,28,VALID,0.4641,
2008-04-11, 00:56:00,VALID,916.273,VALID,0,VALID,100,VALID,-0.0679233,VALID,19.4627,VALID,28,VALID,0.00962936,
2008-04-11, 00:57:00,VALID,916.253,VALID,0,VALID,100,VALID,-0.101885,VALID,19.4368,VALID,28,VALID,0,
2008-04-11, 00:58:00,VALID,916.23,VALID,0,VALID,100,VALID,-0.0849042,VALID,19.414,VALID,31,VALID,0.686047,
2008-04-11, 00:59:00,VALID,916.193,VALID,0,VALID,100,VALID,-0.0509425,VALID,19.3881,VALID,34,VALID,0.858648,
2008-04-11, 01:00:00,VALID,916.181,VALID,0,VALID,100,VALID,-0.0169808,VALID,19.3589,VALID,33,VALID,0.662064,
2008-04-11, 01:01:00,VALID,916.157,VALID,0,VALID,100,VALID,-0.0679233,VALID,19.3656,VALID,32,VALID,0.0826982,
2008-04-11, 01:02:00,VALID,916.151,VALID,0,VALID,100,VALID,-0.0849042,VALID,19.3561,VALID,32,VALID,0,
2008-04-11, 01:03:00,VALID,916.12,VALID,0,VALID,100,VALID,-0.0679233,VALID,19.3234,VALID,32,VALID,0,
2008-04-11, 01:04:00,VALID,916.093,VALID,0,VALID,100,VALID,-0.0339617,VALID,19.3167,VALID,32,VALID,0,
2008-04-11, 01:05:00,VALID,916.062,VALID,0,VALID,100,VALID,0.0679233,VALID,19.2988,VALID,32,VALID,0,
2008-04-11, 01:06:00,VALID,916.044,VALID,0,VALID,100,VALID,0.101885,VALID,19.2793,VALID,32,VALID,0,
2008-04-11, 01:07:00,VALID,916.026,VALID,0,VALID,100,VALID,0.101885,VALID,19.2995,VALID,32,VALID,0,
2008-04-11, 01:08:00,VALID,916.021,VALID,0,VALID,100,VALID,0.0849042,VALID,19.2631,VALID,32,VALID,0,
2008-04-11, 01:09:00,VALID,916.007,VALID,0,VALID,100,VALID,0.0679233,VALID,19.2536,VALID,29,VALID,0,
2008-04-11, 01:10:00,VALID,915.989,VALID,0,VALID,100,VALID,0.0339617,VALID,19.2339,VALID,27,VALID,0,
2008-04-11, 01:11:00,VALID,915.987,VALID,0,VALID,100,VALID,0.101885,VALID,19.2506,VALID,26,VALID,0,
2008-04-11, 01:12:00,VALID,915.961,VALID,0,VALID,100,VALID,0.0509425,VALID,19.2374,VALID,22,VALID,0,
2008-04-11, 01:13:00,VALID,915.953,VALID,0,VALID,100,VALID,0.0339617,VALID,19.2376,VALID,1,VALID,0.209028,
2008-04-11, 01:14:00,VALID,915.947,VALID,0,VALID,100,VALID,0.0679233,VALID,19.2244,VALID,359,VALID,0.00628811,
2008-04-11, 01:15:00,VALID,915.936,VALID,0,VALID,100,VALID,0.0339617,VALID,19.2179,VALID,359,VALID,0,
2008-04-11, 01:16:00,VALID,915.932,VALID,0,VALID,100,VALID,0.0679233,VALID,19.2179,VALID,359,VALID,0,
2008-04-11, 01:17:00,VALID,915.915,VALID,0,VALID,100,VALID,0.0509425,VALID,19.2311,VALID,359,VALID,0.182478,
2008-04-11, 01:18:00,VALID,915.922,VALID,0,VALID,100,VALID,0.0679233,VALID,19.2244,VALID,347,VALID,0.582304,
2008-04-11, 01:19:00,VALID,915.926,VALID,0,VALID,100,VALID,0.0679233,VALID,19.2015,VALID,322,VALID,0.0868459,
2008-04-11, 01:20:00,VALID,915.914,VALID,0,VALID,100,VALID,-0.0509425,VALID,19.2159,VALID,273,VALID,0,
2008-04-11, 01:21:00,VALID,915.897,VALID,0,VALID,100,VALID,-0.0339617,VALID,19.2261,VALID,271,VALID,0,
2008-04-11, 01:22:00,VALID,915.893,VALID,0,VALID,100,VALID,0,VALID,19.2326,VALID,271,VALID,0,
2008-04-11, 01:23:00,VALID,915.892,VALID,0,VALID,100,VALID,-0.0169808,VALID,19.2388,VALID,271,VALID,0,
2008-04-11, 01:24:00,VALID,915.883,VALID,0,VALID,100,VALID,-0.0339617,VALID,19.2516,VALID,264,VALID,0,
2008-04-11, 01:25:00,VALID,915.879,VALID,0,VALID,100,VALID,-0.0339617,VALID,19.2581,VALID,263,VALID,0,
2008-04-11, 01:26:00,VALID,915.866,VALID,0,VALID,100,VALID,-0.0169808,VALID,19.268,VALID,263,VALID,0,
2008-04-11, 01:27:00,VALID,915.861,VALID,0,VALID,100,VALID,-0.0339617,VALID,19.2745,VALID,263,VALID,0.0194311,
2008-04-11, 01:28:00,VALID,915.847,VALID,0,VALID,100,VALID,0,VALID,19.2708,VALID,257,VALID,0.821221,
2008-04-11, 01:29:00,VALID,915.84,VALID,0,VALID,100,VALID,-0.0509425,VALID,19.271,VALID,255,VALID,0.0179869,
2008-04-11, 01:30:00,VALID,915.841,VALID,0,VALID,100,VALID,0,VALID,19.2743,VALID,254,VALID,0.115916,
2008-04-11, 01:31:00,VALID,915.833,VALID,0,VALID,100,VALID,-0.0339617,VALID,19.2778,VALID,258,VALID,1.06523,
2008-04-11, 01:32:00,VALID,915.826,VALID,0,VALID,100,VALID,-0.0339617,VALID,19.3005,VALID,246,VALID,0.452257,
2008-04-11, 01:33:00,VALID,915.808,VALID,0,VALID,100,VALID,-0.0509425,VALID,19.3137,VALID,234,VALID,0,
2008-04-11, 01:34:00,VALID,915.786,VALID,0,VALID,100,VALID,-0.0169808,VALID,19.3302,VALID,235,VALID,0.151172,
2008-04-11, 01:35:00,VALID,915.789,VALID,0,VALID,100,VALID,0,VALID,19.3327,VALID,260,VALID,0.4504,
2008-04-11, 01:36:00,VALID,915.768,VALID,0,VALID,100,VALID,0,VALID,19.3322,VALID,255,VALID,0.777439,
2008-04-11, 01:37:00,VALID,915.758,VALID,0,VALID,100,VALID,0,VALID,19.332,VALID,269,VALID,0.112351,
2008-04-11, 01:38:00,VALID,915.753,VALID,0,VALID,100,VALID,0.0339617,VALID,19.3417,VALID,269,VALID,0,
2008-04-11, 01:39:00,VALID,915.74,VALID,0,VALID,100,VALID,0,VALID,19.3484,VALID,269,VALID,0,
2008-04-11, 01:40:00,VALID,915.745,VALID,0,VALID,100,VALID,0,VALID,19.3649,VALID,263,VALID,0.224609,
2008-04-11, 01:41:00,VALID,915.747,VALID,0,VALID,100,VALID,-0.0169808,VALID,19.3579,VALID,263,VALID,1.2168,
2008-04-11, 01:42:00,VALID,915.737,VALID,0,VALID,100,VALID,0.0169808,VALID,19.3484,VALID,266,VALID,0.696221,
2008-04-11, 01:43:00,VALID,915.744,VALID,0,VALID,100,VALID,0,VALID,19.3612,VALID,257,VALID,0.279344,
2008-04-11, 01:44:00,VALID,915.745,VALID,0,VALID,100,VALID,0.0169808,VALID,19.3547,VALID,270,VALID,1.00195,
2008-04-11, 01:45:00,VALID,915.736,VALID,0,VALID,100,VALID,0.0169808,VALID,19.3487,VALID,253,VALID,0.968928,
2008-04-11, 01:46:00,VALID,915.728,VALID,0,VALID,100,VALID,0.0169808,VALID,19.3522,VALID,245,VALID,0.914595,
2008-04-11, 01:47:00,VALID,915.721,VALID,0,VALID,100,VALID,0,VALID,19.3487,VALID,260,VALID,0.293056,
2008-04-11, 01:48:00,VALID,915.708,VALID,0,VALID,100,VALID,0,VALID,19.3382,VALID,260,VALID,0.0397892,
2008-04-11, 01:49:00,VALID,915.693,VALID,0,VALID,100,VALID,0,VALID,19.3482,VALID,289,VALID,0.425249,
2008-04-11, 01:50:00,VALID,915.688,VALID,0,VALID,100,VALID,0.0169808,VALID,19.3487,VALID,266,VALID,0.421494,
2008-04-11, 01:51:00,VALID,915.68,VALID,0,VALID,100,VALID,-0.0339617,VALID,19.3419,VALID,273,VALID,0.228693,
2008-04-11, 01:52:00,VALID,915.653,VALID,0,VALID,100,VALID,0,VALID,19.3549,VALID,269,VALID,0,
2008-04-11, 01:53:00,VALID,915.637,VALID,0,VALID,100,VALID,0.0169808,VALID,19.3482,VALID,253,VALID,0,
2008-04-11, 01:54:00,VALID,915.619,VALID,0,VALID,100,VALID,-0.0169808,VALID,19.3582,VALID,249,VALID,0,
2008-04-11, 01:55:00,VALID,915.602,VALID,0,VALID,100,VALID,-0.0169808,VALID,19.3711,VALID,249,VALID,0,
2008-04-11, 01:56:00,VALID,915.563,VALID,0,VALID,100,VALID,0,VALID,19.3811,VALID,249,VALID,0,
2008-04-11, 01:57:00,VALID,915.529,VALID,0,VALID,100,VALID,-0.0169808,VALID,19.3874,VALID,249,VALID,0,
2008-04-11, 01:58:00,VALID,915.507,VALID,0,VALID,100,VALID,0,VALID,19.3869,VALID,250,VALID,0,
2008-04-11, 01:59:00,VALID,915.498,VALID,0,VALID,100,VALID,0,VALID,19.3968,VALID,257,VALID,0,
2008-04-11, 02:00:00,VALID,915.48,VALID,0,VALID,100,VALID,0,VALID,19.4003,VALID,257,VALID,0,
2008-04-11, 02:01:00,VALID,915.474,VALID,0,VALID,100,VALID,0.0339617,VALID,19.4165,VALID,263,VALID,0,
2008-04-11, 02:02:00,VALID,915.463,VALID,0,VALID,100,VALID,0,VALID,19.4263,VALID,269,VALID,0,
2008-04-11, 02:03:00,VALID,915.445,VALID,0,VALID,100,VALID,0,VALID,19.4003,VALID,297,VALID,0,
2008-04-11, 02:04:00,VALID,915.436,VALID,0,VALID,100,VALID,-0.0169808,VALID,19.4036,VALID,298,VALID,0,
2008-04-11, 02:05:00,VALID,915.422,VALID,0,VALID,100,VALID,0,VALID,19.423,VALID,315,VALID,0.0109747,
2008-04-11, 02:06:00,VALID,915.42,VALID,0,VALID,100,VALID,0.0169808,VALID,19.4293,VALID,22,VALID,0.699219,
2008-04-11, 02:07:00,VALID,915.418,VALID,0,VALID,100,VALID,0,VALID,19.4323,VALID,26,VALID,0.356889,
2008-04-11, 02:08:00,VALID,915.413,VALID,0,VALID,100,VALID,-0.0169808,VALID,19.433,VALID,26,VALID,0,
2008-04-11, 02:09:00,VALID,915.415,VALID,0,VALID,100,VALID,0,VALID,19.4133,VALID,26,VALID,0,
2008-04-11, 02:10:00,VALID,915.388,VALID,0,VALID,100,VALID,-0.0169808,VALID,19.4135,VALID,26,VALID,0,
2008-04-11, 02:11:00,VALID,915.378,VALID,0,VALID,100,VALID,0,VALID,19.4363,VALID,26,VALID,0,
2008-04-11, 02:12:00,VALID,915.361,VALID,0,VALID,100,VALID,0,VALID,19.4363,VALID,26,VALID,0,
2008-04-11, 02:13:00,VALID,915.349,VALID,0,VALID,100,VALID,-0.0169808,VALID,19.443,VALID,26,VALID,0,
2008-04-11, 02:14:00,VALID,915.342,VALID,0,VALID,100,VALID,-0.0169808,VALID,19.4203,VALID,26,VALID,0,
2008-04-11, 02:15:00,VALID,915.326,VALID,0,VALID,100,VALID,0,VALID,19.4168,VALID,26,VALID,0,
2008-04-11, 02:16:00,VALID,915.319,VALID,0,VALID,100,VALID,-0.0169808,VALID,19.4295,VALID,26,VALID,0.317708,
2008-04-11, 02:17:00,VALID,915.3,VALID,0,VALID,100,VALID,-0.0169808,VALID,19.4263,VALID,26,VALID,0.157158,
2008-04-11, 02:18:00,VALID,915.291,VALID,0,VALID,100,VALID,0.0169808,VALID,19.4233,VALID,26,VALID,0.31065,
2008-04-11, 02:19:00,VALID,915.288,VALID,0,VALID,100,VALID,-0.0339617,VALID,19.4265,VALID,26,VALID,0.604167,
2008-04-11, 02:20:00,VALID,915.279,VALID,0,VALID,100,VALID,0,VALID,19.423,VALID,26,VALID,0.594283,
2008-04-11, 02:21:00,VALID,915.277,VALID,0,VALID,100,VALID,-0.0169808,VALID,19.4263,VALID,26,VALID,0.468395,
2008-04-11, 02:22:00,VALID,915.272,VALID,0,VALID,100,VALID,-0.0169808,VALID,19.4198,VALID,20,VALID,0.00247713,
2008-04-11, 02:23:00,VALID,915.275,VALID,0,VALID,100,VALID,-0.0169808,VALID,19.4071,VALID,15,VALID,0,
2008-04-11, 02:24:00,VALID,915.282,VALID,0,VALID,100,VALID,-0.0339617,VALID,19.3876,VALID,17,VALID,0,
2008-04-11, 02:25:00,VALID,915.275,VALID,0,VALID,100,VALID,0,VALID,19.3871,VALID,17,VALID,0,
2008-04-11, 02:26:00,VALID,915.268,VALID,0,VALID,100,VALID,-0.0169808,VALID,19.4031,VALID,17,VALID,0,
2008-04-11, 02:27:00,VALID,915.263,VALID,0.2,VALID,100,VALID,0,VALID,19.4225,VALID,17,VALID,0,
2008-04-11, 02:28:00,VALID,915.257,VALID,0,VALID,100,VALID,-0.0169808,VALID,19.436,VALID,17,VALID,0,
2008-04-11, 02:29:00,VALID,915.263,VALID,0,VALID,100,VALID,-0.0509425,VALID,19.4363,VALID,17,VALID,0,
2008-04-11, 02:30:00,VALID,915.25,VALID,0,VALID,100,VALID,0.0169808,VALID,19.436,VALID,17,VALID,0,
2008-04-11, 02:31:00,VALID,915.239,VALID,0,VALID,100,VALID,0,VALID,19.4425,VALID,17,VALID,0,
2008-04-11, 02:32:00,VALID,915.247,VALID,0,VALID,100,VALID,0,VALID,19.4455,VALID,17,VALID,0,
2008-04-11, 02:33:00,VALID,915.253,VALID,0,VALID,100,VALID,-0.0169808,VALID,19.4453,VALID,17,VALID,0,
2008-04-11, 02:34:00,VALID,915.255,VALID,0,VALID,100,VALID,-0.0339617,VALID,19.4492,VALID,17,VALID,0,
2008-04-11, 02:35:00,VALID,915.248,VALID,0,VALID,100,VALID,-0.0169808,VALID,19.4462,VALID,17,VALID,0,
2008-04-11, 02:36:00,VALID,915.249,VALID,0,VALID,100,VALID,-0.0169808,VALID,19.4427,VALID,17,VALID,0,
2008-04-11, 02:37:00,VALID,915.249,VALID,0,VALID,100,VALID,0.0169808,VALID,19.4258,VALID,17,VALID,0,
2008-04-11, 02:38:00,VALID,915.255,VALID,0,VALID,100,VALID,0,VALID,19.4423,VALID,17,VALID,0,
2008-04-11, 02:39:00,VALID,915.267,VALID,0,VALID,100,VALID,0.0169808,VALID,19.4323,VALID,17,VALID,0.108854,
2008-04-11, 02:40:00,VALID,915.262,VALID,0,VALID,100,VALID,0.0339617,VALID,19.4355,VALID,17,VALID,0.00186012,
2008-04-11, 02:41:00,VALID,915.274,VALID,0,VALID,100,VALID,0.0339617,VALID,19.4617,VALID,17,VALID,0.175037,
2008-04-11, 02:42:00,VALID,915.279,VALID,0,VALID,100,VALID,-0.0169808,VALID,19.4582,VALID,17,VALID,0.319404,
2008-04-11, 02:43:00,VALID,915.268,VALID,0,VALID,100,VALID,0.0169808,VALID,19.4645,VALID,17,VALID,0.0318359,
2008-04-11, 02:44:00,VALID,915.269,VALID,0,VALID,100,VALID,0.0169808,VALID,19.4517,VALID,17,VALID,0,
2008-04-11, 02:45:00,VALID,915.266,VALID,0,VALID,100,VALID,0,VALID,19.4552,VALID,17,VALID,0,
2008-04-11, 02:46:00,VALID,915.271,VALID,0,VALID,100,VALID,0,VALID,19.4587,VALID,17,VALID,0,
2008-04-11, 02:47:00,VALID,915.25,VALID,0,VALID,100,VALID,0.0169808,VALID,19.4483,VALID,17,VALID,0,
2008-04-11, 02:48:00,VALID,915.253,VALID,0,VALID,100,VALID,0.0339617,VALID,19.4485,VALID,17,VALID,0,
2008-04-11, 02:49:00,VALID,915.26,VALID,0,VALID,100,VALID,0.0509425,VALID,19.4483,VALID,18,VALID,0.128729,
2008-04-11, 02:50:00,VALID,915.258,VALID,0,VALID,100,VALID,-0.101885,VALID,19.449,VALID,27,VALID,0.126334,
2008-04-11, 02:51:00,VALID,915.26,VALID,0,VALID,100,VALID,-0.101885,VALID,19.4532,VALID,36,VALID,0.0179869,
2008-04-11, 02:52:00,VALID,915.256,VALID,0,VALID,100,VALID,-0.101885,VALID,19.437,VALID,34,VALID,0.352325,
2008-04-11, 02:53:00,VALID,915.256,VALID,0,VALID,100,VALID,-0.101885,VALID,19.447,VALID,32,VALID,0.541016,
2008-04-11, 02:54:00,VALID,915.258,VALID,0,VALID,100,VALID,-0.0849042,VALID,19.447,VALID,32,VALID,0.376272,
2008-04-11, 02:55:00,VALID,915.251,VALID,0,VALID,100,VALID,-0.101885,VALID,19.4173,VALID,32,VALID,0.249273,
2008-04-11, 02:56:00,VALID,915.253,VALID,0,VALID,100,VALID,-0.101885,VALID,19.4245,VALID,32,VALID,0.859375,
2008-04-11, 02:57:00,VALID,915.252,VALID,0,VALID,100,VALID,-0.101885,VALID,19.4312,VALID,36,VALID,0.999442,
2008-04-11, 02:58:00,VALID,915.226,VALID,0,VALID,100,VALID,-0.0849042,VALID,19.4016,VALID,19,VALID,0.926417,
2008-04-11, 02:59:00,VALID,915.221,VALID,0,VALID,100,VALID,-0.0849042,VALID,19.3981,VALID,23,VALID,1.14539,
2008-04-11, 03:00:00,VALID,915.213,VALID,0,VALID,100,VALID,-0.0849042,VALID,19.3788,VALID,21,VALID,1.07685,
2008-04-11, 03:01:00,VALID,915.21,VALID,0,VALID,100,VALID,-0.0849042,VALID,19.3626,VALID,20,VALID,0.938616,
2008-04-11, 03:02:00,VALID,915.209,VALID,0,VALID,100,VALID,-0.101885,VALID,19.3564,VALID,21,VALID,0.736861,
2008-04-11, 03:03:00,VALID,915.187,VALID,0,VALID,100,VALID,-0.0849042,VALID,19.3462,VALID,26,VALID,0.774826,
2008-04-11, 03:04:00,VALID,915.186,VALID,0,VALID,100,VALID,-0.101885,VALID,19.3399,VALID,40,VALID,0.684896,
2008-04-11, 03:05:00,VALID,915.176,VALID,0,VALID,100,VALID,-0.0509425,VALID,19.3422,VALID,19,VALID,0.603277,
2008-04-11, 03:06:00,VALID,915.161,VALID,0,VALID,100,VALID,0,VALID,19.3227,VALID,36,VALID,0.249092,
2008-04-11, 03:07:00,VALID,915.158,VALID,0,VALID,100,VALID,0.0169808,VALID,19.303,VALID,18,VALID,0,
2008-04-11, 03:08:00,VALID,915.136,VALID,0,VALID,100,VALID,-0.0169808,VALID,19.2965,VALID,254,VALID,0.25884,
2008-04-11, 03:09:00,VALID,915.14,VALID,0,VALID,100,VALID,0,VALID,19.2636,VALID,323,VALID,0.25093,
2008-04-11, 03:10:00,VALID,915.13,VALID,0,VALID,100,VALID,0.0169808,VALID,19.2571,VALID,7,VALID,0.751488,
2008-04-11, 03:11:00,VALID,915.141,VALID,0,VALID,100,VALID,-0.0169808,VALID,19.2509,VALID,33,VALID,0.623698,
2008-04-11, 03:12:00,VALID,915.146,VALID,0,VALID,100,VALID,0,VALID,19.2573,VALID,347,VALID,0.165968,
2008-04-11, 03:13:00,VALID,915.143,VALID,0,VALID,100,VALID,-0.0169808,VALID,19.2708,VALID,10,VALID,0.79127,
2008-04-11, 03:14:00,VALID,915.128,VALID,0,VALID,100,VALID,0.0169808,VALID,19.2371,VALID,28,VALID,1.39082,
2008-04-11, 03:15:00,VALID,915.126,VALID,0,VALID,100,VALID,0,VALID,19.2344,VALID,10,VALID,0.954901,
2008-04-11, 03:16:00,VALID,915.116,VALID,0,VALID,100,VALID,-0.0169808,VALID,19.2418,VALID,13,VALID,0.815848,
2008-04-11, 03:17:00,VALID,915.123,VALID,0,VALID,100,VALID,0.0509425,VALID,19.2214,VALID,13,VALID,0.950462,
2008-04-11, 03:18:00,VALID,915.114,VALID,0,VALID,100,VALID,0.0339617,VALID,19.2314,VALID,10,VALID,0.85191,
2008-04-11, 03:19:00,VALID,915.097,VALID,0,VALID,100,VALID,0,VALID,19.2414,VALID,13,VALID,1.31975,
2008-04-11, 03:20:00,VALID,915.082,VALID,0,VALID,100,VALID,-0.0339617,VALID,19.2296,VALID,1,VALID,0.458147,
2008-04-11, 03:21:00,VALID,915.076,VALID,0,VALID,100,VALID,-0.118866,VALID,19.2264,VALID,354,VALID,0.555831,
2008-04-11, 03:22:00,VALID,915.072,VALID,0,VALID,100,VALID,-0.101885,VALID,19.2231,VALID,353,VALID,0.643415,
2008-04-11, 03:23:00,VALID,915.065,VALID,0,VALID,100,VALID,-0.0509425,VALID,19.2036,VALID,10,VALID,0.810268,
2008-04-11, 03:24:00,VALID,915.061,VALID,0,VALID,100,VALID,-0.101885,VALID,19.2064,VALID,13,VALID,0.395833,
2008-04-11, 03:25:00,VALID,915.065,VALID,0,VALID,100,VALID,-0.118866,VALID,19.2231,VALID,357,VALID,0,
2008-04-11, 03:26:00,VALID,915.065,VALID,0,VALID,100,VALID,-0.0679233,VALID,19.2229,VALID,357,VALID,0,
2008-04-11, 03:27:00,VALID,915.071,VALID,0,VALID,100,VALID,-0.0849042,VALID,19.2261,VALID,360,VALID,0.0325218,
2008-04-11, 03:28:00,VALID,915.053,VALID,0,VALID,100,VALID,-0.101885,VALID,19.2134,VALID,8,VALID,0.231318,
2008-04-11, 03:29:00,VALID,915.041,VALID,0,VALID,100,VALID,-0.0509425,VALID,19.2129,VALID,23,VALID,0.705412,
2008-04-11, 03:30:00,VALID,915.031,VALID,0,VALID,100,VALID,-0.101885,VALID,19.2097,VALID,25,VALID,1.09215,
2008-04-11, 03:31:00,VALID,915.031,VALID,0,VALID,100,VALID,-0.0509425,VALID,19.2264,VALID,31,VALID,1.12411,
2008-04-11, 03:32:00,VALID,915.029,VALID,0,VALID,100,VALID,-0.0849042,VALID,19.2161,VALID,21,VALID,0.705859,
2008-04-11, 03:33:00,VALID,915.032,VALID,0,VALID,100,VALID,-0.0509425,VALID,19.2294,VALID,26,VALID,0.516006,
2008-04-11, 03:34:00,VALID,915.016,VALID,0,VALID,100,VALID,-0.101885,VALID,19.1807,VALID,18,VALID,1.33147,
2008-04-11, 03:35:00,VALID,915.007,VALID,0,VALID,100,VALID,-0.0849042,VALID,19.168,VALID,3,VALID,1.44668,
2008-04-11, 03:36:00,VALID,915.01,VALID,0,VALID,100,VALID,-0.0339617,VALID,19.142,VALID,3,VALID,1.09449,
2008-04-11, 03:37:00,VALID,915.004,VALID,0,VALID,100,VALID,-0.135847,VALID,19.1392,VALID,14,VALID,1.03659,
2008-04-11, 03:38:00,VALID,915.021,VALID,0,VALID,100,VALID,-0.0849042,VALID,19.1388,VALID,7,VALID,1.16443,
2008-04-11, 03:39:00,VALID,915.026,VALID,0,VALID,100,VALID,-0.101885,VALID,19.1221,VALID,355,VALID,0.916424,
2008-04-11, 03:40:00,VALID,915.026,VALID,0,VALID,100,VALID,-0.118866,VALID,19.1555,VALID,14,VALID,0.713605,
2008-04-11, 03:41:00,VALID,915.037,VALID,0,VALID,100,VALID,-0.101885,VALID,19.1223,VALID,352,VALID,1.03056,
2008-04-11, 03:42:00,VALID,915.024,VALID,0,VALID,100,VALID,-0.0849042,VALID,19.1186,VALID,19,VALID,0.884115,
2008-04-11, 03:43:00,VALID,915.019,VALID,0,VALID,100,VALID,-0.0679233,VALID,19.1455,VALID,359,VALID,0.717535,
2008-04-11, 03:44:00,VALID,914.989,VALID,0,VALID,100,VALID,-0.0679233,VALID,19.1193,VALID,3,VALID,1.30434,